TimeCET,TemperatureF,Dew PointF,Humidity,Sea Level PressureIn,VisibilityMPH,Wind Direction,Wind SpeedMPH,Gust SpeedMPH,PrecipitationIn,Events,Conditions,WindDirDegrees,DateUTC
12:25 AM,24.8,19.4,80,29.86,6.2,NE,15.0,-,N/A,,Unknown,50,2013-03-11 23:25:00
12:55 AM,24.8,19.4,80,29.86,6.2,ENE,13.8,-,N/A,,Unknown,60,2013-03-11 23:55:00
1:00 AM,25,19,71,29.86,28,NE,15.7,,,,Partly Cloudy,50,2013-03-12 00:00:00
1:25 AM,24.8,19.4,80,29.86,6.2,NE,12.7,-,N/A,,Unknown,50,2013-03-12 00:25:00
1:55 AM,24.8,19.4,80,29.83,6.2,NE,12.7,-,N/A,,Unknown,50,2013-03-12 00:55:00
2:25 AM,24.8,19.4,80,29.83,6.2,NE,13.8,-,N/A,,Unknown,50,2013-03-12 01:25:00
2:55 AM,24.8,19.4,80,29.83,6.2,NE,12.7,-,N/A,,Unknown,50,2013-03-12 01:55:00
3:25 AM,24.8,19.4,80,29.83,6.2,NE,12.7,-,N/A,,Unknown,50,2013-03-12 02:25:00
3:55 AM,24.8,17.6,74,29.83,6.2,NE,12.7,-,N/A,,Unknown,50,2013-03-12 02:55:00
4:00 AM,24,17,67,29.84,28,NE,11.2,,,,Scattered Clouds,50,2013-03-12 03:00:00
4:25 AM,23.0,17.6,80,29.83,6.2,NE,11.5,-,N/A,,Unknown,50,2013-03-12 03:25:00
4:55 AM,23.0,17.6,80,29.83,6.2,NE,10.4,-,N/A,,Unknown,50,2013-03-12 03:55:00
5:25 AM,24.8,15.8,69,29.80,6.2,NE,11.5,-,N/A,,Unknown,50,2013-03-12 04:25:00
5:55 AM,23.0,15.8,74,29.80,6.2,NE,12.7,-,N/A,,Unknown,50,2013-03-12 04:55:00
6:25 AM,23.0,15.8,74,29.80,6.2,NE,10.4,-,N/A,,Unknown,50,2013-03-12 05:25:00
6:55 AM,23.0,15.8,74,29.80,6.2,ENE,10.4,-,N/A,,Unknown,60,2013-03-12 05:55:00
7:00 AM,24,16,61,29.82,28,NE,11.2,,,,Partly Cloudy,50,2013-03-12 06:00:00
7:25 AM,23.0,15.8,74,29.80,6.2,NE,10.4,-,N/A,,Unknown,50,2013-03-12 06:25:00
7:55 AM,24.8,15.8,69,29.80,6.2,NE,10.4,-,N/A,,Unknown,50,2013-03-12 06:55:00
8:55 AM,26.6,15.8,64,29.80,6.2,ENE,12.7,-,N/A,,Unknown,60,2013-03-12 07:55:00
9:25 AM,28.4,15.8,59,29.80,6.2,ENE,16.1,-,N/A,,Unknown,60,2013-03-12 08:25:00
9:55 AM,28.4,15.8,59,29.80,6.2,NE,16.1,-,N/A,,Unknown,50,2013-03-12 08:55:00
10:00 AM,28,16,48,29.82,19,NE,15.7,,,,,50,2013-03-12 09:00:00
10:25 AM,28.4,15.8,59,29.80,6.2,NE,15.0,-,N/A,,Partly Cloudy,50,2013-03-12 09:25:00
10:55 AM,28.4,17.6,64,29.80,6.2,NE,13.8,-,N/A,,Scattered Clouds,50,2013-03-12 09:55:00
11:25 AM,28.4,15.8,59,29.80,6.2,ENE,13.8,-,N/A,,Unknown,60,2013-03-12 10:25:00
11:55 AM,30.2,17.6,60,29.80,6.2,ENE,13.8,-,N/A,,Unknown,70,2013-03-12 10:55:00
12:25 PM,30.2,17.6,60,29.77,6.2,ENE,13.8,-,N/A,,Unknown,60,2013-03-12 11:25:00
12:55 PM,30.2,19.4,64,29.77,6.2,ENE,10.4,-,N/A,,Partly Cloudy,60,2013-03-12 11:55:00
1:00 PM,31,19,48,29.79,19,NE,11.2,,,,Partly Cloudy,50,2013-03-12 12:00:00
1:25 PM,30.2,17.6,60,29.77,6.2,NNE,10.4,-,N/A,,Partly Cloudy,30,2013-03-12 12:25:00
1:55 PM,30.2,17.6,60,29.77,6.2,NE,9.2,-,N/A,,Partly Cloudy,40,2013-03-12 12:55:00
2:25 PM,32.0,17.6,55,29.77,6.2,NNE,9.2,-,N/A,,Partly Cloudy,30,2013-03-12 13:25:00
2:55 PM,32.0,17.6,55,29.74,6.2,NNE,10.4,-,N/A,,Unknown,30,2013-03-12 13:55:00
3:25 PM,32.0,17.6,55,29.74,6.2,NE,9.2,-,N/A,,Unknown,40,2013-03-12 14:25:00
3:55 PM,32.0,17.6,55,29.74,6.2,NNE,10.4,-,N/A,,Unknown,20,2013-03-12 14:55:00
4:25 PM,32.0,19.4,60,29.74,6.2,NE,10.4,-,N/A,,Unknown,40,2013-03-12 15:25:00
4:55 PM,32.0,15.8,51,29.74,6.2,NNE,9.2,-,N/A,,Unknown,30,2013-03-12 15:55:00
5:25 PM,30.2,17.6,60,29.71,6.2,NE,8.1,-,N/A,,Unknown,50,2013-03-12 16:25:00
5:55 PM,30.2,19.4,64,29.71,6.2,NNE,8.1,-,N/A,,Unknown,30,2013-03-12 16:55:00
6:25 PM,30.2,19.4,64,29.71,6.2,NNE,6.9,-,N/A,,Unknown,20,2013-03-12 17:25:00
6:55 PM,28.4,17.6,64,29.71,6.2,North,6.9,-,N/A,,Unknown,10,2013-03-12 17:55:00
7:00 PM,29,17,49,29.74,28,North,6.7,,,,Partly Cloudy,10,2013-03-12 18:00:00
7:25 PM,28.4,19.4,69,29.74,6.2,North,5.8,-,N/A,,Unknown,360,2013-03-12 18:25:00
7:55 PM,28.4,17.6,64,29.74,6.2,North,4.6,-,N/A,,Unknown,10,2013-03-12 18:55:00
8:25 PM,24.8,17.6,74,29.71,6.2,NNE,3.5,-,N/A,,Unknown,30,2013-03-12 19:25:00
8:55 PM,24.8,15.8,69,29.71,6.2,Variable,1.2,-,N/A,,Unknown,0,2013-03-12 19:55:00
9:25 PM,23.0,17.6,80,29.71,6.2,South,1.2,-,N/A,,Unknown,190,2013-03-12 20:25:00
9:55 PM,23.0,17.6,80,29.71,6.2,WSW,2.3,-,N/A,,Unknown,240,2013-03-12 20:55:00
10:00 PM,23,18,73,29.73,28,WSW,2.2,,,,Scattered Clouds,240,2013-03-12 21:00:00
10:25 PM,23.0,19.4,86,29.71,6.2,WSW,2.3,-,N/A,,Unknown,240,2013-03-12 21:25:00
10:55 PM,21.2,17.6,86,29.71,6.2,SSW,2.3,-,N/A,,Unknown,200,2013-03-12 21:55:00
11:25 PM,23.0,19.4,86,29.71,6.2,Variable,1.2,-,N/A,,Unknown,0,2013-03-12 22:25:00
11:55 PM,19.4,17.6,93,29.71,6.2,South,3.5,-,N/A,,Unknown,180,2013-03-12 22:55:00